Weather History for Noatak, AK

Change the Weather History Date:

Friday, October 26, 2012

  Actual Average Record
Temperature  
Mean Temperature 22 °F -  
Max Temperature 28 °F 20 °F 37 °F (2002)
Min Temperature 15 °F 10 °F -11 °F (2007)
Degree Days  
Heating Degree Days 44    
Moisture  
Dew Point 17 °F    
Average Humidity 79    
Maximum Humidity 93    
Minimum Humidity 64    
Precipitation  
Precipitation 0.00 in - - ()
Sea Level Pressure  
Sea Level Pressure 30.45 in    
Wind  
Wind Speed 3 mph (NNE)    
Max Wind Speed 8 mph    
Max Gust Speed -    
Visibility 10 miles    
Events      
Averages and records for this station are not official NWS values.
T = Trace of Precipitation, MM = Missing Value Source: NWS Daily Summary

Daily Weather History Graph

Daily Weather History Graph

Search for Another Location

Airport:

Trip Planner

Search our weather history database for the weather conditions in past years. The results will help you decide how hot, cold, wet, or windy it might be!

Date:

Astronomy

Oct. 26, 2012 Rise Set
Actual Time 10:38 AM AKDT 6:31 PM AKDT
Civil Twilight 9:37 AM AKDT 7:32 PM AKDT
Nautical Twilight 8:33 AM AKDT 8:36 PM AKDT
Astronomical Twilight 7:29 AM AKDT 9:39 PM AKDT
Moon 5:44 PM AKDT (10/26) 6:43 AM AKDT (10/26)
Length of Visible Light 9h 54m
Length of Day
7h 53m
Waxing Gibbous, 92% of the Moon is Illuminated
Oct 26
Waxing Gibbous
Oct 29
Full
Nov 6
Last Quarter
Nov 13
New
Nov 20
First Quarter

Hourly Weather History & Observations

Time (AKDT) Temp. Windchill Dew Point Humidity Pressure Visibility Wind Dir Wind Speed Gust Speed Precip Events Conditions
12:16 AM 28.4 °F 21.2 °F 17.6 °F 64% 30.48 in 10.0 mi SSE 6.9 mph - N/A   Overcast
12:36 AM 28.4 °F 20.4 °F 17.6 °F 64% 30.48 in 10.0 mi SE 8.1 mph - N/A   Overcast
12:56 AM 26.6 °F 21.2 °F 17.6 °F 69% 30.48 in 10.0 mi SE 4.6 mph - N/A   Mostly Cloudy
1:16 AM 26.6 °F 22.6 °F 17.6 °F 69% 30.48 in 10.0 mi South 3.5 mph - N/A   Mostly Cloudy
1:36 AM 26.6 °F 22.6 °F 17.6 °F 69% 30.48 in 10.0 mi ESE 3.5 mph - N/A   Overcast
1:56 AM 26.6 °F 21.2 °F 17.6 °F 69% 30.49 in 10.0 mi ESE 4.6 mph - N/A   Overcast
2:16 AM 26.6 °F - 17.6 °F 69% 30.48 in 10.0 mi Calm Calm - N/A   Mostly Cloudy
2:36 AM 26.6 °F - 17.6 °F 69% 30.47 in 10.0 mi Calm Calm - N/A   Clear
2:56 AM 26.6 °F - 17.6 °F 69% 30.47 in 10.0 mi Calm Calm - N/A   Partly Cloudy
3:16 AM 24.8 °F - 17.6 °F 74% 30.48 in 10.0 mi Calm Calm - N/A   Mostly Cloudy
3:36 AM 24.8 °F - 17.6 °F 74% 30.48 in 10.0 mi Calm Calm - N/A   Overcast
3:56 AM 24.8 °F - 17.6 °F 74% 30.48 in 10.0 mi Calm Calm - N/A   Mostly Cloudy
4:16 AM 24.8 °F - 17.6 °F 74% 30.47 in 10.0 mi Calm Calm - N/A   Partly Cloudy
4:36 AM 24.8 °F - 19.4 °F 80% 30.47 in 10.0 mi Calm Calm - N/A   Clear
4:56 AM 21.2 °F - 17.6 °F 86% 30.47 in 10.0 mi Calm Calm - N/A   Clear
5:36 AM 19.4 °F 14.3 °F 15.8 °F 86% 30.46 in 10.0 mi SW 3.5 mph - N/A   Clear
5:56 AM 19.4 °F - 15.8 °F 86% 30.47 in 10.0 mi Calm Calm - N/A   Mostly Cloudy
6:16 AM 19.4 °F - 15.8 °F 86% 30.47 in 10.0 mi Calm Calm - N/A   Overcast
6:36 AM 21.2 °F - 17.6 °F 86% 30.46 in 10.0 mi Calm Calm - N/A   Overcast
6:56 AM 21.2 °F - 17.6 °F 86% 30.46 in 10.0 mi Calm Calm - N/A   Overcast
7:16 AM 23.0 °F - 17.6 °F 80% 30.46 in 10.0 mi Calm Calm - N/A   Overcast
7:36 AM 23.0 °F - 17.6 °F 80% 30.46 in 10.0 mi Calm Calm - N/A   Mostly Cloudy
7:56 AM 21.2 °F - 17.6 °F 86% 30.46 in 10.0 mi Calm Calm - N/A   Clear
8:16 AM 21.2 °F - 17.6 °F 86% 30.46 in 10.0 mi Calm Calm - N/A   Clear
8:36 AM 21.2 °F - 17.6 °F 86% 30.46 in 10.0 mi Calm Calm - N/A   Clear
8:56 AM 21.2 °F - 15.8 °F 80% 30.46 in 10.0 mi Calm Calm - N/A   Clear
9:16 AM 19.4 °F - 14.0 °F 80% 30.46 in 10.0 mi Calm Calm - N/A   Clear
9:36 AM 17.6 °F - 14.0 °F 86% 30.45 in 10.0 mi Calm Calm - N/A   Clear
9:56 AM 17.6 °F - 14.0 °F 86% 30.45 in 10.0 mi Calm Calm - N/A   Clear
10:16 AM 17.6 °F - 14.0 °F 86% 30.45 in 10.0 mi Calm Calm - N/A   Clear
10:36 AM 17.6 °F - 15.8 °F 93% 30.45 in 10.0 mi Calm Calm - N/A   Clear
10:56 AM 17.6 °F - 14.0 °F 86% 30.45 in 10.0 mi Calm Calm - N/A   Clear
11:36 AM 17.6 °F - 14.0 °F 86% 30.46 in 10.0 mi Calm Calm - N/A   Clear
11:56 AM 19.4 °F - 15.8 °F 86% 30.46 in 10.0 mi Calm Calm - N/A   Clear
12:16 PM 21.2 °F 16.4 °F 17.6 °F 86% 30.46 in 10.0 mi North 3.5 mph - N/A   Clear
12:36 PM 21.2 °F - 17.6 °F 86% 30.46 in 10.0 mi Calm Calm - N/A   Clear
12:56 PM 23.0 °F 18.4 °F 19.4 °F 86% 30.46 in 10.0 mi NNE 3.5 mph - N/A   Clear
1:16 PM 24.8 °F 20.5 °F 19.4 °F 80% 30.46 in 10.0 mi NNE 3.5 mph - N/A   Clear
1:36 PM 24.8 °F 20.5 °F 19.4 °F 80% 30.45 in 10.0 mi NE 3.5 mph - N/A   Clear
1:56 PM 24.8 °F - 19.4 °F 80% 30.45 in 10.0 mi Calm Calm - N/A   Clear
2:16 PM 26.6 °F 22.6 °F 19.4 °F 74% 30.45 in 10.0 mi NE 3.5 mph - N/A   Clear
2:36 PM 26.6 °F 22.6 °F 19.4 °F 74% 30.45 in 10.0 mi NNE 3.5 mph - N/A   Clear
2:56 PM 28.4 °F - 19.4 °F 69% 30.44 in 5.0 mi Calm Calm - N/A   Clear
3:16 PM 28.4 °F - 19.4 °F 69% 30.44 in 10.0 mi Calm Calm - N/A   Clear
3:36 PM 28.4 °F 24.6 °F 19.4 °F 69% 30.44 in 10.0 mi NNE 3.5 mph - N/A   Clear
3:56 PM 28.4 °F 24.6 °F 19.4 °F 69% 30.44 in 10.0 mi NNE 3.5 mph - N/A   Clear
4:16 PM 28.4 °F 24.6 °F 19.4 °F 69% 30.45 in 10.0 mi NNE 3.5 mph - N/A   Clear
4:36 PM 28.4 °F 24.6 °F 19.4 °F 69% 30.44 in 10.0 mi NE 3.5 mph - N/A   Clear
4:56 PM 28.4 °F 24.6 °F 19.4 °F 69% 30.43 in 1.5 mi NE 3.5 mph - N/A   Clear
5:16 PM 28.4 °F - 19.4 °F 69% 30.43 in 10.0 mi Calm Calm - N/A   Clear
5:36 PM 28.4 °F - 19.4 °F 69% 30.43 in 10.0 mi Calm Calm - N/A   Clear
5:56 PM 28.4 °F 23.3 °F 19.4 °F 69% 30.43 in 10.0 mi North 4.6 mph - N/A   Clear
6:16 PM 26.6 °F 22.6 °F 19.4 °F 74% 30.43 in 10.0 mi North 3.5 mph - N/A   Clear
6:36 PM 24.8 °F 19.1 °F 19.4 °F 80% 30.43 in 10.0 mi North 4.6 mph - N/A   Clear
6:56 PM 24.8 °F 17.9 °F 17.6 °F 74% 30.42 in 10.0 mi North 5.8 mph - N/A   Clear
7:16 PM 23.0 °F 17.0 °F 17.6 °F 80% 30.43 in 10.0 mi North 4.6 mph - N/A   Clear
7:36 PM 21.2 °F 14.9 °F 17.6 °F 86% 30.43 in 10.0 mi North 4.6 mph - N/A   Clear
7:56 PM 21.2 °F 13.6 °F 15.8 °F 80% 30.43 in 10.0 mi North 5.8 mph - N/A   Clear
8:16 PM 21.2 °F 14.9 °F 17.6 °F 86% 30.42 in 10.0 mi North 4.6 mph - N/A   Clear
8:36 PM 19.4 °F 12.8 °F 17.6 °F 93% 30.42 in 10.0 mi North 4.6 mph - N/A   Clear
8:56 PM 17.6 °F 7.3 °F 14.0 °F 86% 30.42 in 10.0 mi North 8.1 mph - N/A   Clear
9:16 PM 17.6 °F 9.3 °F 15.8 °F 93% 30.41 in 10.0 mi North 5.8 mph - N/A   Clear
9:36 PM 17.6 °F 9.3 °F 15.8 °F 93% 30.42 in 10.0 mi North 5.8 mph - N/A   Clear
9:56 PM 15.8 °F 8.6 °F 12.2 °F 86% 30.42 in 10.0 mi North 4.6 mph - N/A   Clear
10:16 PM 17.6 °F 9.3 °F 14.0 °F 86% 30.42 in 10.0 mi North 5.8 mph - N/A   Clear
10:36 PM 15.8 °F 8.6 °F 12.2 °F 86% 30.42 in 10.0 mi North 4.6 mph - N/A   Clear
10:56 PM 15.8 °F 7.2 °F 12.2 °F 86% 30.41 in 10.0 mi North 5.8 mph - N/A   Clear
11:16 PM 15.8 °F 6.1 °F 12.2 °F 86% 30.41 in 10.0 mi North 6.9 mph - N/A   Clear
11:36 PM 15.8 °F 6.1 °F 12.2 °F 86% 30.41 in 10.0 mi North 6.9 mph - N/A   Clear
11:56 PM 15.8 °F 8.6 °F 12.2 °F 86% 30.41 in 10.0 mi North 4.6 mph - N/A   Clear